KB3UQE Weather Reports


time (UTC)temp
F
wind
direction
speed
knots
gust
knots
rain 1hr
in
rain 24hr
in
rain mn
in
humidity
%
barometer
mb
20260508060951 50 0.0 0.0 0.00 0.00 0.00 71 1009.3
20260508060844 51 0.0 0.0 0.00 0.00 0.00 71 1009.0
20260508054551 51 0.0 0.0 0.00 0.00 0.00 71 1009.0
20260508054438 51 0.0 0.0 0.00 0.00 0.00 71 1008.8
20260508052151 51 0.0 0.0 0.00 0.00 0.00 71 1008.8
20260508052037 52 0.0 0.0 0.00 0.00 0.00 70 1008.6
20260508045751 52 0.0 0.0 0.00 0.00 0.00 70 1008.6
20260508045636 53 0.0 0.0 0.00 0.00 0.00 70 1008.4
20260508043350 53 0.0 0.0 0.00 0.00 0.00 70 1008.4
20260508043236 54 0.0 0.0 0.00 0.00 0.00 71 1008.2
20260508041250 54 0.0 0.0 0.00 0.00 0.00 71 1008.2
20260508041136 56 0.0 0.0 0.00 0.00 0.00 72 1008.0
20260508034850 56 0.0 0.0 0.00 0.00 0.00 72 1008.0
20260508034736 57 0.0 0.0 0.00 0.00 0.00 72 1007.8
20260508032450 57 0.0 0.0 0.00 0.00 0.00 72 1007.8
20260508032336 57 0.0 0.0 0.00 0.00 0.00 73 1007.9
20260508030049 57 0.0 0.0 0.00 0.00 0.00 73 1007.9
20260508025935 57 0.0 0.0 0.00 0.00 0.00 72 1007.8
20260508023649 57 0.0 0.0 0.00 0.00 0.00 72 1007.8
20260508023535 57 0.0 0.0 0.00 0.00 0.00 73 1007.9
20260508021249 57 0.0 0.0 0.00 0.00 0.00 73 1007.9
20260508021134 56 0.0 0.0 0.00 0.00 0.00 72 1007.9
20260508014849 56 0.0 0.0 0.00 0.00 0.00 72 1007.9
20260508014734 55 0.0 0.0 0.00 0.00 0.00 71 1007.7
20260508012448 55 0.0 0.0 0.00 0.00 0.00 71 1007.7
20260508012334 56 0.0 0.0 0.00 0.00 0.00 70 1007.2
20260508010047 56 0.0 0.0 0.00 0.00 0.00 70 1007.2
20260508005935 57 0.0 0.0 0.00 0.00 0.00 70 1006.8
20260508003647 57 0.0 0.0 0.00 0.00 0.00 70 1006.8
20260508003534 59 0.0 0.0 0.00 0.00 0.00 69 1006.6
20260508001247 59 0.0 0.0 0.00 0.00 0.00 69 1006.6
20260508001134 62 0.0 0.0 0.00 0.00 0.00 69 1006.2
20260507234847 62 0.0 0.0 0.00 0.00 0.00 69 1006.2
20260507234733 64 0.0 0.0 0.00 0.00 0.00 69 1005.9
20260507232447 64 0.0 0.0 0.00 0.00 0.00 69 1005.9
20260507232333 66 0.0 0.0 0.00 0.00 0.00 69 1005.7
20260507230046 66 0.0 0.0 0.00 0.00 0.00 69 1005.7
20260507225933 68 0.0 0.0 0.00 0.00 0.00 68 1005.4
20260507223646 68 0.0 0.0 0.00 0.00 0.00 68 1005.4
20260507223532 70 0.0 0.0 0.00 0.00 0.00 68 1005.4
20260507221246 70 0.0 0.0 0.00 0.00 0.00 68 1005.4
20260507221132 71 0.0 0.0 0.00 0.00 0.00 67 1005.4
20260507214846 71 0.0 0.0 0.00 0.00 0.00 67 1005.4
20260507214732 73 0.0 0.0 0.00 0.00 0.00 67 1005.5
20260507212445 73 0.0 0.0 0.00 0.00 0.00 67 1005.5
20260507212332 73 0.0 0.0 0.00 0.00 0.00 67 1005.5
20260507210048 73 0.0 0.0 0.00 0.00 0.00 67 1005.5
20260507205932 74 0.0 0.0 0.00 0.00 0.00 67 1005.4
20260507203859 74 0.0 0.0 0.00 0.00 0.00 67 1005.4
20260507203532 74 0.0 0.0 0.00 0.00 0.00 67 1005.7
20260507201459 74 0.0 0.0 0.00 0.00 0.00 67 1005.7
20260507201431 77 0.0 0.0 0.00 0.00 0.00 63 1005.9
20260507195058 77 0.0 0.0 0.00 0.00 0.00 63 1005.9
20260507195031 78 0.0 0.0 0.00 0.00 0.00 62 1006.3
20260507192657 78 0.0 0.0 0.00 0.00 0.00 62 1006.3
20260507192632 82 0.0 0.0 0.00 0.00 0.00 61 1006.2
20260507190257 82 0.0 0.0 0.00 0.00 0.00 61 1006.2
20260507190232 84 0.0 0.0 0.00 0.00 0.00 63 1006.6
20260507183857 84 0.0 0.0 0.00 0.00 0.00 63 1006.6
20260507183830 88 0.0 0.0 0.00 0.00 0.00 62 1006.8
20260507181456 88 0.0 0.0 0.00 0.00 0.00 62 1006.8
20260507181430 89 0.0 0.0 0.00 0.00 0.00 62 1007.2
20260507175056 89 0.0 0.0 0.00 0.00 0.00 62 1007.2
20260507175030 89 0.0 0.0 0.00 0.00 0.00 60 1007.0
20260507172656 89 0.0 0.0 0.00 0.00 0.00 60 1007.0
20260507172630 91 0.0 0.0 0.00 0.00 0.00 57 1007.7
20260507170256 91 0.0 0.0 0.00 0.00 0.00 57 1007.7
20260507170229 90 0.0 0.0 0.00 0.00 0.00 55 1007.7
20260507164156 90 0.0 0.0 0.00 0.00 0.00 55 1007.7
20260507164129 90 0.0 0.0 0.00 0.00 0.00 55 1008.4
20260507162055 90 0.0 0.0 0.00 0.00 0.00 55 1008.4
20260507162029 82 0.0 0.0 0.00 0.00 0.00 54 1009.1
20260507155955 82 0.0 0.0 0.00 0.00 0.00 54 1009.1
20260507155928 75 0.0 0.0 0.00 0.00 0.00 57 1008.8
20260507153855 75 0.0 0.0 0.00 0.00 0.00 57 1008.8
20260507153829 69 0.0 0.0 0.00 0.00 0.00 63 1009.2
20260507151755 69 0.0 0.0 0.00 0.00 0.00 63 1009.2
20260507151728 67 0.0 0.0 0.00 0.00 0.00 65 1009.6
20260507145654 67 0.0 0.0 0.00 0.00 0.00 65 1009.6
20260507145628 69 0.0 0.0 0.00 0.00 0.00 62 1009.6
20260507143254 69 0.0 0.0 0.00 0.00 0.00 62 1009.6
20260507143228 67 0.0 0.0 0.00 0.00 0.00 64 1010.0
20260507140854 67 0.0 0.0 0.00 0.00 0.00 64 1010.0
20260507140828 66 0.0 0.0 0.00 0.00 0.00 64 1010.3
20260507134453 66 0.0 0.0 0.00 0.00 0.00 64 1010.3
20260507134427 64 0.0 0.0 0.00 0.00 0.00 65 1010.5
20260507132053 64 0.0 0.0 0.00 0.00 0.00 65 1010.5
20260507132027 62 0.0 0.0 0.00 0.00 0.00 65 1011.4
20260507125653 62 0.0 0.0 0.00 0.00 0.00 65 1011.4
20260507125627 68 0.0 0.0 0.00 0.00 0.00 57 1010.4
20260507123252 68 0.0 0.0 0.00 0.00 0.00 57 1010.4
20260507123226 68 0.0 0.0 0.00 0.00 0.00 56 1011.0
20260507120852 68 0.0 0.0 0.00 0.00 0.00 56 1011.0
20260507120827 65 0.0 0.0 0.00 0.00 0.00 59 1007.4
20260507114452 65 0.0 0.0 0.00 0.00 0.00 59 1007.4
20260507114427 62 0.0 0.0 0.00 0.00 0.00 63 1007.0
20260507112052 62 0.0 0.0 0.00 0.00 0.00 63 1007.0
20260507112026 65 0.0 0.0 0.00 0.00 0.00 59 1007.7
20260507105652 65 0.0 0.0 0.00 0.00 0.00 59 1007.7
20260507105625 62 0.0 0.0 0.00 0.00 0.00 65 1009.2
20260507103251 62 0.0 0.0 0.00 0.00 0.00 65 1009.2
20260507103225 61 0.0 0.0 0.00 0.00 0.00 67 1008.6
20260507100854 61 0.0 0.0 0.00 0.00 0.00 67 1008.6
20260507100825 60 0.0 0.0 0.00 0.00 0.00 67 1008.1
20260507094451 60 0.0 0.0 0.00 0.00 0.00 67 1008.1
20260507094425 60 0.0 0.0 0.00 0.00 0.00 67 1007.9
20260507092050 60 0.0 0.0 0.00 0.00 0.00 67 1007.9
20260507092027 59 0.0 0.0 0.00 0.00 0.00 68 1006.3
20260507085650 59 0.0 0.0 0.00 0.00 0.00 68 1006.3
20260507085626 58 0.0 0.0 0.00 0.00 0.00 70 1005.5
20260507083250 58 0.0 0.0 0.00 0.00 0.00 70 1005.5
20260507083225 57 0.0 0.0 0.00 0.00 0.00 70 1005.4
20260507081150 57 0.0 0.0 0.00 0.00 0.00 70 1005.4
20260507081124 58 0.0 0.0 0.00 0.00 0.00 71 1007.1
20260507075050 58 0.0 0.0 0.00 0.00 0.00 71 1007.1
20260507075024 58 0.0 0.0 0.00 0.00 0.00 70 1007.9
20260507073223 58 0.0 0.0 0.00 0.00 0.00 70 1007.9
20260507072912 58 0.0 0.0 0.00 0.00 0.00 70 1007.9
20260507072753 58 0.0 0.0 0.00 0.00 0.00 70 1007.9
20260507064213 58 0.0 0.0 0.00 0.00 0.00 70 1007.9
20260507061424 58 0.0 0.0 0.00 0.00 0.00 70 1007.9